Location: LDNL
(36.4545°S, 141.6685°E)
Time: 22:31:34
(UTC+11:00)

Courier 1B Rocket - Pass Details

Date: 01 February 2023
Orbit: 920 x 1202 km, 28.2° (Epoch: 26 March)

Event Time Altitude Azimuth Distance (km) Brightness Sun altitude
Rises 04:31:44 0° 342° (NNW) 4,029 - -23.6°
Reaches altitude 10° 04:36:43 10° 9° (N) 3,110 - -22.9°
Exits shadow 04:37:35 11° 15° (NNE) 3,028 7.3 -22.8°
Maximum altitude 04:39:34 12° 31° (NNE) 2,952 7.4 -22.5°
Drops below altitude 10° 04:42:26 10° 53° (NE) 3,135 7.7 -22.1°
Sets 04:47:29 0° 80° (E) 4,099 8.8 -21.4°
